Home   Weather   Husum   Past weeks

Flag for Germany Past Weather in Husum, Schleswig-Holstein, Germany — Yesterday and Last 2 Weeks

54 °F


Feels Like: 49 °F
Forecast: 51 / 56 °F
Wind: 18 mph from Southwest

Location: Schleswig-Jagel

Current Time: Oct 28, 2016 at 12:52:46 AM

Latest Report: Oct 27, 2016 at 11:20 PM

Visibility: 4 mi

Pressure: 30.27 "Hg

Humidity: 88%

Dew Point: 50 °F

Location of HusumLocation

Past Weather in Husum — Graph


Husum Temperature Yesterday

Maximum temperature yesterday: 57 °F (at 12:20 PM)
Minimum temperature yesterday: 46 °F (at 12:20 AM)
Average temperature yesterday: 53 °F

High & Low Weather Summary for the Past Weeks

High57 °F (Oct 18, 3:20 PM)100% (Oct 16, 7:20 AM)30.36 "Hg (Oct 16, 7:20 AM)
Low32 °F (Oct 26, 1:20 AM)63% (Oct 13, 3:20 PM)29.86 "Hg (Oct 15, 4:20 AM)
Average47 °F91%30.08 "Hg
* Reported Oct 12 11:20 PM — Oct 27 11:20 PM, Husum, Weather by CustomWeather, © 2016

Note: Actual official high and low records may vary slightly from our data, if they occured in-between our weather recording intervals... More about our weather records


Husum Weather History for the Previous 24 Hours

Scroll right to see more
Time TempWeatherWind HumidityBarometerVisibility
11:20 PM
Thu, Oct 27
54 °FCool.18 mph88%30.27 "Hg4 mi
10:20 PM54 °FCool.22 mph88%30.27 "Hg4 mi
9:20 PM54 °FCool.18 mph88%30.27 "Hg6 mi
8:20 PM54 °FCool.16 mph94%30.30 "Hg5 mi
7:20 PM54 °FCool.17 mph94%30.30 "Hg6 mi
6:20 PM54 °FCool.16 mph94%30.30 "HgN/A
5:20 PM55 °FCool.15 mph88%30.30 "HgN/A
4:20 PM55 °FPartly sunny.15 mph94%30.30 "Hg5 mi
3:20 PM55 °FBroken clouds.15 mph88%30.33 "Hg6 mi
2:20 PM57 °FScattered clouds.15 mph82%30.33 "HgN/A
1:20 PM57 °FPartly sunny.16 mph72%30.33 "HgN/A
12:20 PM57 °FScattered clouds.15 mph77%30.33 "HgN/A
11:20 AM55 °FScattered clouds.10 mph88%30.33 "HgN/A
10:57 AM54 °FScattered clouds.9 mph94%30.33 "Hg5 mi
10:45 AM54 °FScattered clouds.9 mph94%30.33 "Hg5 mi
10:20 AM54 °FPartly sunny.9 mph94%30.30 "Hg4 mi
9:54 AM54 °FFog.7 mph94%30.30 "Hg2 mi
9:20 AM52 °FFog.8 mph100%30.30 "Hg2 mi
8:20 AM52 °FFog.7 mph94%30.30 "Hg1 mi
7:53 AM52 °FFog.7 mph94%30.27 "Hg1 mi
7:20 AM52 °FFog.10 mph100%30.27 "Hg2 mi
6:20 AM52 °FFog.10 mph100%30.27 "Hg2 mi
5:20 AM52 °FFog.12 mph94%30.27 "Hg1 mi
4:20 AM50 °FCool.7 mph94%30.24 "Hg1 mi
3:20 AM48 °FCool.10 mph100%30.27 "Hg1 mi
2:20 AM48 °FCool.12 mph94%30.27 "Hg1 mi
1:20 AM46 °FCool.10 mph93%30.27 "Hg2 mi
12:20 AM46 °FCool.9 mph87%30.27 "Hg3 mi
Weather by CustomWeather, © 2016

See weather overviewHow to use our weather pages